COSMOS 1194

Satellite information

Favourite Embed

Satellite Type and Status

PAYLOADIN ORBIT

Key statistics

Satellite COSMOS 1194 at a glance.

Uptime

16553

Days in orbit

Revolutions

≈ 12.5

Per day

Orbit

LEO

Low Earth Orbit

Inclination

74.0

Latest

Satellite identification and parameters

Extended collection of information and parameters for COSMOS 1194.

Object identification

Identified? True

Debris? False

Object name: COSMOS 1194

International designator: 1980-058C

Object number (NORAD): 11877

Object ID (CCSDS): 11877

Country: COMMONWEALTH OF INDEPENDENT STATES (CIS)

Current information (Y/N): Y

RCS size: MEDIUM

Orbital parameters

Period: 114.943 minutes

Inclination: 74.0153 deg

SMA: 7830.955 km

Apoapsis: 1474.277 km

Periapsis: 1431.363 km

RAAN: 145.4204 deg

Eccentricy: 0.00274002

Argument of periapsis: 322.7294 deg

Mean anomaly: 37.1856 deg

Mean motion: 12.52796945 rev/day

Mean motion (dot): 0.00000018 rev/day2

B* drag term: 0.00021616216 1/REarth

Two-line elements (TLE)

Creation date: Nov. 1, 2025, 7:40 p.m.

Reference frame: TEME

Reference center: EARTH

Epoch: Nov. 1, 2025, 11:57 a.m. UTC

TLE line 0: 0 COSMOS 1194

TLE line 1: 1 11877U 80058C 25305.49830515 .00000018 00000-0 21616-3 0 9993

TLE line 2: 2 11877 74.0153 145.4204 0027400 322.7294 37.1856 12.52796945 72434

Live tracking on map

Real-time ground track for satellite COSMOS 1194.

In-orbit conjunctions

A list of the most updated potential collisions computed for object COSMOS 1194.

Target Orbit TCA Probability of collision Miss distance Type
SL-14 DEB MEO 2024-11-29 14:26:58 0.0001620416 701.0 (m) DEBRIS

Associated space launch

Optical film-return reconnaissance satellite

COSMOS 1194 was lifted into orbit during the mission ‘Soyuz U | Zenit-6U 22’, on board a Soyuz U space rocket.

The launch took place on July 9, 1980, 12:40 p.m. from 41/1.

For more information about the launch, click the button.

Launch to space Soyuz U | Zenit-6U 22
Soyuz U | Zenit-6U 22

Agency: N/A

Status: Launch Successful

Launch date: July 9, 1980, 12:40 p.m. UTC

Rocket: Soyuz U

Launch pad: 41/1

Location: Plesetsk Cosmodrome, Russian Federation

...

Latest news about this satellite

There are no fresh news available about this satellite. Check back as we update our databases every day.


Newsletter sign-up

Weekly statistics, charts and insights to help you stay on top of the space industry.